START_TIME,STEP,MOV.,A46,t_acc.,A13,t_acc.,M47,t_acc.,A17,t_acc.,A28,t_acc.,M38,t_acc.
1979-07-23 00:00:25.090 ,0,0,,0,10.,4.8,1.,4.8,,0,0.,4.8,2.,4.8
1979-07-23 00:00:29.890 ,0,0,,0,8.,4.8,1.,4.8,,0,0.,4.8,2.,4.8
1979-07-23 00:00:34.690 ,0,0,,0,12.,4.8,2.,4.8,,0,0.,4.8,0.,4.8
1979-07-23 00:00:39.490 ,0,0,,0,0.,4.8,0.,4.8,,0,0.,4.8,2.,4.8
1979-07-23 00:00:44.290 ,0,0,,0,0.,4.8,0.,4.8,,0,0.,4.8,3.,4.8
1979-07-23 00:00:49.090 ,1,0,,0,0.,4.8,0.,4.8,,0,0.,4.8,1.,4.8
1979-07-23 00:00:53.890 ,1,0,,0,0.,4.8,0.,4.8,,0,0.,4.8,2.,4.8
1979-07-23 00:00:58.690 ,1,0,,0,2.,4.8,1.,4.8,,0,0.,4.8,5.,4.8
1979-07-23 00:01:03.490 ,1,0,,0,16.,4.8,4.,4.8,,0,0.,4.8,4.,4.8
1979-07-23 00:01:08.290 ,1,0,,0,5.,4.8,1.,4.8,,0,0.,4.8,6.,4.8
1979-07-23 00:01:13.090 ,1,0,,0,18.,4.8,2.,4.8,,0,0.,4.8,5.,4.8
1979-07-23 00:01:17.890 ,1,0,,0,19.,4.8,2.,4.8,,0,0.,4.8,8.,4.8
1979-07-23 00:01:22.690 ,1,0,,0,17.,4.8,4.,4.8,,0,0.,4.8,6.,4.8
1979-07-23 00:01:27.490 ,1,0,,0,1.,4.8,0.,4.8,,0,0.,4.8,2.,4.8
1979-07-23 00:01:32.290 ,1,0,,0,0.,4.8,0.,4.8,,0,0.,4.8,3.,4.8
1979-07-23 00:01:37.090 ,2,0,,0,0.,4.8,0.,4.8,,0,0.,4.8,5.,4.8
1979-07-23 00:01:41.890 ,2,0,,0,0.,4.8,0.,4.8,,0,0.,4.8,3.,4.8
1979-07-23 00:01:46.690 ,2,0,,0,3.,4.8,0.,4.8,,0,0.,4.8,2.,4.8
1979-07-23 00:01:51.490 ,2,0,,0,9.,4.8,0.,4.8,,0,0.,4.8,2.,4.8
1979-07-23 00:01:56.290 ,2,0,,0,3.,4.8,1.,4.8,,0,0.,4.8,3.,4.8
1979-07-23 00:02:01.090 ,2,0,,0,4.,4.8,1.,4.8,,0,0.,4.8,2.,4.8
1979-07-23 00:02:05.890 ,2,0,,0,9.,4.8,1.,4.8,,0,0.,4.8,1.,4.8
1979-07-23 00:02:10.690 ,2,0,,0,10.,4.8,1.,4.8,,0,0.,4.8,2.,4.8
1979-07-23 00:02:15.490 ,2,0,,0,0.,4.8,0.,4.8,,0,0.,4.8,3.,4.8
1979-07-23 00:02:20.290 ,2,0,,0,0.,4.8,0.,4.8,,0,0.,4.8,3.,4.8
1979-07-23 00:02:25.090 ,3,0,,0,0.,4.8,0.,4.8,,0,0.,4.8,2.,4.8
1979-07-23 00:02:29.890 ,3,0,,0,0.,4.8,0.,4.8,,0,0.,4.8,2.,4.8
1979-07-23 00:02:34.690 ,3,0,,0,1.,4.8,0.,4.8,,0,0.,4.8,5.,4.8
1979-07-23 00:02:39.490 ,3,0,,0,6.,4.8,0.,4.8,,0,0.,4.8,0.,4.8
1979-07-23 00:02:44.290 ,3,0,,0,2.,4.8,1.,4.8,,0,0.,4.8,2.,4.8
1979-07-23 00:02:49.090 ,3,0,,0,6.,4.8,1.,4.8,,0,0.,4.8,0.,4.8
1979-07-23 00:02:53.890 ,3,0,,0,2.,4.8,0.,4.8,,0,0.,4.8,2.,4.8
1979-07-23 00:02:58.690 ,3,0,,0,2.,4.8,0.,4.8,,0,0.,4.8,0.,4.8
1979-07-23 00:03:03.490 ,3,0,,0,0.,4.8,0.,4.8,,0,0.,4.8,1.,4.8
1979-07-23 00:03:08.290 ,3,0,,0,0.,4.8,0.,4.8,,0,0.,4.8,1.,4.8
1979-07-23 00:03:13.090 ,4,0,,0,0.,4.8,0.,4.8,,0,0.,4.8,1.,4.8
1979-07-23 00:03:17.890 ,4,0,,0,0.,4.8,0.,4.8,,0,0.,4.8,1.,4.8
1979-07-23 00:03:22.690 ,4,0,,0,1.,4.8,0.,4.8,,0,0.,4.8,1.,4.8
1979-07-23 00:03:27.490 ,4,0,,0,4.,4.8,0.,4.8,,0,0.,4.8,0.,4.8
1979-07-23 00:03:32.290 ,4,0,,0,9.,4.8,1.,4.8,,0,0.,4.8,1.,4.8
1979-07-23 00:03:37.090 ,4,0,,0,5.,4.8,0.,4.8,,0,0.,4.8,0.,4.8
1979-07-23 00:03:41.890 ,4,0,,0,3.,4.8,0.,4.8,,0,0.,4.8,0.,4.8
1979-07-23 00:03:46.690 ,4,0,,0,6.,4.8,0.,4.8,,0,0.,4.8,0.,4.8
1979-07-23 00:03:51.490 ,4,0,,0,0.,4.8,0.,4.8,,0,0.,4.8,0.,4.8
1979-07-23 00:03:56.290 ,4,0,,0,0.,4.8,0.,4.8,,0,0.,4.8,1.,4.8
1979-07-23 00:04:01.090 ,5,0,,0,0.,4.8,0.,4.8,,0,0.,4.8,3.,4.8
1979-07-23 00:04:05.890 ,5,0,,0,0.,4.8,0.,4.8,,0,0.,4.8,3.,4.8
1979-07-23 00:04:10.690 ,5,0,,0,1.,4.8,0.,4.8,,0,0.,4.8,2.,4.8
1979-07-23 00:04:15.490 ,5,0,,0,6.,4.8,0.,4.8,,0,0.,4.8,1.,4.8
1979-07-23 00:04:20.290 ,5,0,,0,6.,4.8,1.,4.8,,0,0.,4.8,1.,4.8
1979-07-23 00:04:25.090 ,5,0,,0,9.,4.8,1.,4.8,,0,0.,4.8,2.,4.8
1979-07-23 00:04:29.890 ,5,0,,0,6.,4.8,1.,4.8,,0,0.,4.8,1.,4.8
1979-07-23 00:04:34.690 ,5,0,,0,5.,4.8,1.,4.8,,0,0.,4.8,3.,4.8
1979-07-23 00:04:39.490 ,5,0,,0,0.,4.8,0.,4.8,,0,0.,4.8,4.,4.8
1979-07-23 00:04:44.290 ,5,0,,0,0.,4.8,0.,4.8,,0,0.,4.8,1.,4.8
1979-07-23 00:04:49.090 ,6,0,,0,0.,4.8,0.,4.8,,0,0.,4.8,1.,4.8
1979-07-23 00:04:53.890 ,6,0,,0,0.,4.8,0.,4.8,,0,0.,4.8,2.,4.8
1979-07-23 00:04:58.690 ,6,0,,0,2.,4.8,1.,4.8,,0,0.,4.8,1.,4.8
1979-07-23 00:05:03.490 ,6,0,,0,17.,4.8,3.,4.8,,0,0.,4.8,2.,4.8
1979-07-23 00:05:08.290 ,6,0,,0,6.,4.8,0.,4.8,,0,0.,4.8,5.,4.8
1979-07-23 00:05:13.090 ,6,0,,0,14.,4.8,1.,4.8,,0,0.,4.8,1.,4.8
1979-07-23 00:05:17.890 ,6,0,,0,18.,4.8,6.,4.8,,0,0.,4.8,4.,4.8
1979-07-23 00:05:22.690 ,6,0,,0,8.,4.8,1.,4.8,,0,0.,4.8,4.,4.8
1979-07-23 00:05:27.490 ,6,0,,0,0.,4.8,0.,4.8,,0,0.,4.8,5.,4.8
1979-07-23 00:05:32.290 ,6,0,,0,0.,4.8,0.,4.8,,0,0.,4.8,4.,4.8
1979-07-23 00:05:37.090 ,7,0,,0,0.,4.8,0.,4.8,,0,0.,4.8,5.,4.8
1979-07-23 00:05:41.890 ,7,0,,0,0.,4.8,0.,4.8,,0,0.,4.8,1.,4.8
1979-07-23 00:05:46.690 ,7,0,,0,3.,4.8,0.,4.8,,0,0.,4.8,0.,4.8
1979-07-23 00:05:51.490 ,7,0,,0,11.,4.8,0.,4.8,,0,0.,4.8,0.,4.8
1979-07-23 00:05:56.290 ,7,0,,0,10.,4.8,0.,4.8,,0,0.,4.8,0.,4.8
1979-07-23 00:06:01.090 ,7,0,,0,12.,4.8,0.,4.8,,0,0.,4.8,0.,4.8
1979-07-23 00:06:05.890 ,7,0,,0,6.,4.8,0.,4.8,,0,0.,4.8,0.,4.8
1979-07-23 00:06:10.690 ,7,0,,0,7.,4.8,0.,4.8,,0,0.,4.8,0.,4.8
1979-07-23 00:06:15.490 ,7,0,,0,0.,4.8,0.,4.8,,0,0.,4.8,0.,4.8
1979-07-23 00:06:20.290 ,7,0,,0,0.,4.8,0.,4.8,,0,0.,4.8,0.,4.8
1979-07-23 00:06:25.090 ,7,0,,0,0.,4.8,0.,4.8,,0,0.,4.8,0.,4.8
1979-07-23 00:06:29.890 ,7,0,,0,0.,4.8,0.,4.8,,0,0.,4.8,0.,4.8
1979-07-23 00:06:34.690 ,7,0,,0,3.,4.8,0.,4.8,,0,0.,4.8,0.,4.8
1979-07-23 00:06:39.490 ,7,0,,0,9.,4.8,0.,4.8,,0,0.,4.8,0.,4.8
1979-07-23 00:06:44.290 ,7,0,,0,9.,4.8,0.,4.8,,0,0.,4.8,0.,4.8
1979-07-23 00:06:49.090 ,7,0,,0,11.,4.8,0.,4.8,,0,0.,4.8,0.,4.8
1979-07-23 00:06:53.890 ,7,0,,0,9.,4.8,1.,4.8,,0,0.,4.8,0.,4.8
1979-07-23 00:06:58.690 ,7,0,,0,2.,4.8,0.,4.8,,0,0.,4.8,0.,4.8
1979-07-23 00:07:03.490 ,7,0,,0,0.,4.8,0.,4.8,,0,0.,4.8,0.,4.8
1979-07-23 00:07:08.290 ,7,0,,0,0.,4.8,0.,4.8,,0,0.,4.8,0.,4.8
1979-07-23 00:07:13.090 ,6,0,,0,0.,4.8,0.,4.8,,0,0.,4.8,0.,4.8
1979-07-23 00:07:17.890 ,6,0,,0,0.,4.8,0.,4.8,,0,0.,4.8,1.,4.8
1979-07-23 00:07:22.690 ,6,0,,0,1.,4.8,0.,4.8,,0,0.,4.8,6.,4.8
1979-07-23 00:07:27.490 ,6,0,,0,17.,4.8,5.,4.8,,0,0.,4.8,0.,4.8
1979-07-23 00:07:32.290 ,6,0,,0,12.,4.8,3.,4.8,,0,0.,4.8,5.,4.8
1979-07-23 00:07:37.090 ,6,0,,0,10.,4.8,2.,4.8,,0,0.,4.8,1.,4.8
1979-07-23 00:07:41.890 ,6,0,,0,9.,4.8,2.,4.8,,0,0.,4.8,4.,4.8
1979-07-23 00:07:46.690 ,6,0,,0,7.,4.8,4.,4.8,,0,0.,4.8,5.,4.8
1979-07-23 00:07:51.490 ,6,0,,0,0.,4.8,0.,4.8,,0,1.,4.8,3.,4.8
1979-07-23 00:07:56.290 ,6,0,,0,0.,4.8,0.,4.8,,0,0.,4.8,5.,4.8
1979-07-23 00:08:01.090 ,5,0,,0,0.,4.8,0.,4.8,,0,0.,4.8,4.,4.8
1979-07-23 00:08:05.890 ,5,0,,0,0.,4.8,0.,4.8,,0,0.,4.8,2.,4.8
1979-07-23 00:08:10.690 ,5,0,,0,1.,4.8,0.,4.8,,0,0.,4.8,1.,4.8
1979-07-23 00:08:15.490 ,5,0,,0,7.,4.8,1.,4.8,,0,0.,4.8,0.,4.8
1979-07-23 00:08:20.290 ,5,0,,0,5.,4.8,0.,4.8,,0,0.,4.8,3.,4.8
1979-07-23 00:08:25.090 ,5,0,,0,5.,4.8,0.,4.8,,0,0.,4.8,1.,4.8
1979-07-23 00:08:29.890 ,5,0,,0,5.,4.8,0.,4.8,,0,0.,4.8,1.,4.8
1979-07-23 00:08:34.690 ,5,0,,0,7.,4.8,0.,4.8,,0,0.,4.8,1.,4.8
1979-07-23 00:08:39.490 ,5,0,,0,0.,4.8,0.,4.8,,0,0.,4.8,3.,4.8
1979-07-23 00:08:44.290 ,5,0,,0,0.,4.8,0.,4.8,,0,0.,4.8,3.,4.8
1979-07-23 00:08:49.090 ,4,0,,0,0.,4.8,0.,4.8,,0,0.,4.8,2.,4.8
1979-07-23 00:08:53.890 ,4,0,,0,0.,4.8,0.,4.8,,0,0.,4.8,2.,4.8
1979-07-23 00:08:58.690 ,4,0,,0,0.,4.8,0.,4.8,,0,0.,4.8,0.,4.8
1979-07-23 00:09:03.490 ,4,0,,0,8.,4.8,0.,4.8,,0,0.,4.8,1.,4.8
1979-07-23 00:09:08.290 ,4,0,,0,5.,4.8,0.,4.8,,0,0.,4.8,1.,4.8
1979-07-23 00:09:13.090 ,4,0,,0,9.,4.8,1.,4.8,,0,0.,4.8,0.,4.8
1979-07-23 00:09:17.890 ,4,0,,0,5.,4.8,1.,4.8,,0,0.,4.8,5.,4.8
1979-07-23 00:09:22.690 ,4,0,,0,2.,4.8,0.,4.8,,0,0.,4.8,2.,4.8
1979-07-23 00:09:27.490 ,4,0,,0,0.,4.8,0.,4.8,,0,0.,4.8,1.,4.8
1979-07-23 00:09:32.290 ,4,0,,0,0.,4.8,0.,4.8,,0,0.,4.8,4.,4.8
1979-07-23 00:09:37.090 ,3,0,,0,0.,4.8,0.,4.8,,0,0.,4.8,0.,4.8
1979-07-23 00:09:41.890 ,3,0,,0,0.,4.8,0.,4.8,,0,2.,4.8,1.,4.8
1979-07-23 00:09:46.690 ,3,0,,0,1.,4.8,0.,4.8,,0,0.,4.8,0.,4.8
1979-07-23 00:09:51.490 ,3,0,,0,5.,4.8,0.,4.8,,0,0.,4.8,0.,4.8
1979-07-23 00:09:56.290 ,3,0,,0,4.,4.8,1.,4.8,,0,0.,4.8,0.,4.8
1979-07-23 00:10:01.090 ,3,0,,0,2.,4.8,0.,4.8,,0,0.,4.8,0.,4.8
1979-07-23 00:10:05.890 ,3,0,,0,3.,4.8,0.,4.8,,0,0.,4.8,1.,4.8
1979-07-23 00:10:10.690 ,3,0,,0,5.,4.8,1.,4.8,,0,0.,4.8,2.,4.8
1979-07-23 00:10:15.490 ,3,0,,0,0.,4.8,1.,4.8,,0,0.,4.8,2.,4.8
1979-07-23 00:10:20.290 ,3,0,,0,0.,4.8,0.,4.8,,0,0.,4.8,1.,4.8
1979-07-23 00:10:25.090 ,2,0,,0,0.,4.8,0.,4.8,,0,0.,4.8,1.,4.8
1979-07-23 00:10:29.890 ,2,0,,0,0.,4.8,0.,4.8,,0,0.,4.8,1.,4.8
1979-07-23 00:10:34.690 ,2,0,,0,0.,4.8,0.,4.8,,0,0.,4.8,2.,4.8
1979-07-23 00:10:39.490 ,2,0,,0,6.,4.8,0.,4.8,,0,0.,4.8,1.,4.8
1979-07-23 00:10:44.290 ,2,0,,0,10.,4.8,0.,4.8,,0,0.,4.8,1.,4.8
1979-07-23 00:10:49.090 ,2,0,,0,7.,4.8,0.,4.8,,0,0.,4.8,0.,4.8
1979-07-23 00:10:53.890 ,2,0,,0,6.,4.8,0.,4.8,,0,0.,4.8,2.,4.8
1979-07-23 00:10:58.690 ,2,0,,0,1.,4.8,0.,4.8,,0,0.,4.8,5.,4.8
1979-07-23 00:11:03.490 ,2,0,,0,0.,4.8,0.,4.8,,0,0.,4.8,2.,4.8
1979-07-23 00:11:08.290 ,2,0,,0,0.,4.8,0.,4.8,,0,0.,4.8,3.,4.8
1979-07-23 00:11:13.090 ,1,0,,0,0.,4.8,0.,4.8,,0,0.,4.8,2.,4.8
1979-07-23 00:11:17.890 ,1,0,,0,0.,4.8,0.,4.8,,0,0.,4.8,1.,4.8
1979-07-23 00:11:22.690 ,1,0,,0,2.,4.8,0.,4.8,,0,0.,4.8,5.,4.8
1979-07-23 00:11:27.490 ,1,0,,0,18.,4.8,4.,4.8,,0,0.,4.8,4.,4.8
1979-07-23 00:11:32.290 ,1,0,,0,18.,4.8,5.,4.8,,0,0.,4.8,6.,4.8
1979-07-23 00:11:37.090 ,1,0,,0,21.,4.8,2.,4.8,,0,0.,4.8,6.,4.8
1979-07-23 00:11:41.890 ,1,0,,0,25.,4.8,3.,4.8,,0,0.,4.8,3.,4.8
1979-07-23 00:11:46.690 ,1,0,,0,20.,4.8,4.,4.8,,0,0.,4.8,6.,4.8
1979-07-23 00:11:51.490 ,1,0,,0,0.,4.8,0.,4.8,,0,0.,4.8,12.,4.8
1979-07-23 00:11:56.290 ,1,0,,0,0.,4.8,0.,4.8,,0,0.,4.8,12.,4.8
1979-07-23 00:12:01.090 ,0,0,,0,0.,4.8,0.,4.8,,0,0.,4.8,4.,4.8
1979-07-23 00:12:05.890 ,0,0,,0,0.,4.8,0.,4.8,,0,0.,4.8,6.,4.8
1979-07-23 00:12:10.690 ,0,0,,0,3.,4.8,1.,4.8,,0,0.,4.8,1.,4.8
1979-07-23 00:12:15.490 ,0,0,,0,14.,4.8,1.,4.8,,0,0.,4.8,2.,4.8
1979-07-23 00:12:20.290 ,0,0,,0,18.,4.8,4.,4.8,,0,0.,4.8,0.,4.8
1979-07-23 00:12:25.090 ,0,0,,0,11.,4.8,2.,4.8,,0,0.,4.8,1.,4.8
1979-07-23 00:12:29.890 ,0,0,,0,10.,4.8,2.,4.8,,0,0.,4.8,5.,4.8
1979-07-23 00:12:34.690 ,0,0,,0,9.,4.8,2.,4.8,,0,0.,4.8,3.,4.8
1979-07-23 00:12:39.490 ,0,0,,0,0.,4.8,0.,4.8,,0,0.,4.8,3.,4.8
1979-07-23 00:12:44.290 ,0,0,,0,0.,4.8,0.,4.8,,0,0.,4.8,4.,4.8
1979-07-23 00:12:49.090 ,0,0,,0,0.,4.8,0.,4.8,,0,0.,4.8,3.,4.8
1979-07-23 00:12:53.890 ,0,0,,0,0.,4.8,0.,4.8,,0,2.,4.8,1.,4.8
1979-07-23 00:12:58.690 ,0,0,,0,3.,4.8,1.,4.8,,0,0.,4.8,2.,4.8
1979-07-23 00:13:03.490 ,0,0,,0,9.,4.8,0.,4.8,,0,0.,4.8,3.,4.8
1979-07-23 00:13:08.290 ,0,0,,0,13.,4.8,0.,4.8,,0,0.,4.8,3.,4.8
1979-07-23 00:13:13.090 ,0,0,,0,8.,4.8,0.,4.8,,0,0.,4.8,2.,4.8
1979-07-23 00:13:17.890 ,0,0,,0,16.,4.8,0.,4.8,,0,0.,4.8,2.,4.8
1979-07-23 00:13:22.690 ,0,0,,0,8.,4.8,0.,4.8,,0,0.,4.8,1.,4.8
1979-07-23 00:13:27.490 ,0,0,,0,0.,4.8,0.,4.8,,0,0.,4.8,4.,4.8
1979-07-23 00:13:32.290 ,0,0,,0,0.,4.8,0.,4.8,,0,0.,4.8,3.,4.8
1979-07-23 00:13:37.090 ,1,0,,0,0.,4.8,0.,4.8,,0,0.,4.8,2.,4.8
1979-07-23 00:13:41.890 ,1,0,,0,0.,4.8,0.,4.8,,0,0.,4.8,6.,4.8
1979-07-23 00:13:46.690 ,1,0,,0,1.,4.8,0.,4.8,,0,0.,4.8,7.,4.8
1979-07-23 00:13:51.490 ,1,0,,0,23.,4.8,1.,4.8,,0,0.,4.8,6.,4.8
1979-07-23 00:13:56.290 ,1,0,,0,23.,4.8,3.,4.8,,0,0.,4.8,8.,4.8
1979-07-23 00:14:01.090 ,1,0,,0,13.,4.8,0.,4.8,,0,0.,4.8,7.,4.8
1979-07-23 00:14:05.890 ,1,0,,0,33.,4.8,5.,4.8,,0,0.,4.8,5.,4.8
1979-07-23 00:14:10.690 ,1,0,,0,19.,4.8,1.,4.8,,0,0.,4.8,7.,4.8
1979-07-23 00:14:15.490 ,1,0,,0,0.,4.8,0.,4.8,,0,0.,4.8,5.,4.8
1979-07-23 00:14:20.290 ,1,0,,0,0.,4.8,0.,4.8,,0,0.,4.8,11.,4.8
1979-07-23 00:14:25.090 ,2,0,,0,0.,4.8,0.,4.8,,0,0.,4.8,7.,4.8
1979-07-23 00:14:29.890 ,2,0,,0,0.,4.8,0.,4.8,,0,0.,4.8,7.,4.8
1979-07-23 00:14:34.690 ,2,0,,0,0.,4.8,0.,4.8,,0,0.,4.8,2.,4.8
1979-07-23 00:14:39.490 ,2,0,,0,6.,4.8,1.,4.8,,0,0.,4.8,2.,4.8
1979-07-23 00:14:44.290 ,2,0,,0,9.,4.8,2.,4.8,,0,0.,4.8,0.,4.8
1979-07-23 00:14:49.090 ,2,0,,0,8.,4.8,1.,4.8,,0,0.,4.8,3.,4.8
1979-07-23 00:14:53.890 ,2,0,,0,11.,4.8,0.,4.8,,0,0.,4.8,4.,4.8
1979-07-23 00:14:58.690 ,2,0,,0,6.,4.8,0.,4.8,,0,1.,4.8,3.,4.8
1979-07-23 00:15:03.490 ,2,0,,0,0.,4.8,0.,4.8,,0,0.,4.8,1.,4.8
1979-07-23 00:15:08.290 ,2,0,,0,1.,4.8,0.,4.8,,0,0.,4.8,3.,4.8
1979-07-23 00:15:13.090 ,3,0,,0,0.,4.8,0.,4.8,,0,0.,4.8,4.,4.8
1979-07-23 00:15:17.890 ,3,0,,0,0.,4.8,0.,4.8,,0,0.,4.8,1.,4.8
1979-07-23 00:15:22.690 ,3,0,,0,2.,4.8,0.,4.8,,0,0.,4.8,0.,4.8
1979-07-23 00:15:27.490 ,3,0,,0,2.,4.8,0.,4.8,,0,0.,4.8,1.,4.8
1979-07-23 00:15:32.290 ,3,0,,0,3.,4.8,0.,4.8,,0,0.,4.8,2.,4.8
1979-07-23 00:15:37.090 ,3,0,,0,0.,4.8,0.,4.8,,0,0.,4.8,1.,4.8
1979-07-23 00:15:41.890 ,3,0,,0,4.,4.8,0.,4.8,,0,0.,4.8,3.,4.8
1979-07-23 00:15:46.690 ,3,0,,0,2.,4.8,0.,4.8,,0,0.,4.8,1.,4.8
1979-07-23 00:15:51.490 ,3,0,,0,0.,4.8,0.,4.8,,0,0.,4.8,1.,4.8
1979-07-23 00:15:56.290 ,3,0,,0,0.,4.8,0.,4.8,,0,0.,4.8,3.,4.8
1979-07-23 00:16:01.090 ,4,0,,0,0.,4.8,0.,4.8,,0,0.,4.8,0.,4.8
1979-07-23 00:16:05.890 ,4,0,,0,0.,4.8,0.,4.8,,0,0.,4.8,0.,4.8
1979-07-23 00:16:10.690 ,4,0,,0,0.,4.8,0.,4.8,,0,0.,4.8,0.,4.8
1979-07-23 00:16:15.490 ,4,0,,0,4.,4.8,0.,4.8,,0,0.,4.8,1.,4.8
1979-07-23 00:16:20.290 ,4,0,,0,9.,4.8,1.,4.8,,0,0.,4.8,1.,4.8
1979-07-23 00:16:25.090 ,4,0,,0,9.,4.8,0.,4.8,,0,0.,4.8,1.,4.8
1979-07-23 00:16:29.890 ,4,0,,0,8.,4.8,0.,4.8,,0,0.,4.8,2.,4.8
1979-07-23 00:16:34.690 ,4,0,,0,5.,4.8,0.,4.8,,0,0.,4.8,0.,4.8
1979-07-23 00:16:39.490 ,4,0,,0,0.,4.8,0.,4.8,,0,0.,4.8,0.,4.8
1979-07-23 00:16:44.290 ,4,0,,0,0.,4.8,0.,4.8,,0,0.,4.8,0.,4.8
1979-07-23 00:16:49.090 ,5,0,,0,0.,4.8,0.,4.8,,0,0.,4.8,0.,4.8
1979-07-23 00:16:53.890 ,5,0,,0,0.,4.8,0.,4.8,,0,0.,4.8,4.,4.8
1979-07-23 00:16:58.690 ,5,0,,0,1.,4.8,0.,4.8,,0,0.,4.8,1.,4.8
1979-07-23 00:17:03.490 ,5,0,,0,1.,4.8,0.,4.8,,0,0.,4.8,0.,4.8
1979-07-23 00:17:08.290 ,5,0,,0,6.,4.8,0.,4.8,,0,0.,4.8,0.,4.8
1979-07-23 00:17:13.090 ,5,0,,0,8.,4.8,0.,4.8,,0,0.,4.8,0.,4.8
1979-07-23 00:17:17.890 ,5,0,,0,7.,4.8,0.,4.8,,0,0.,4.8,0.,4.8
1979-07-23 00:17:22.690 ,5,0,,0,3.,4.8,0.,4.8,,0,0.,4.8,1.,4.8
1979-07-23 00:17:27.490 ,5,0,,0,0.,4.8,0.,4.8,,0,0.,4.8,1.,4.8
1979-07-23 00:17:32.290 ,5,0,,0,0.,4.8,0.,4.8,,0,0.,4.8,4.,4.8
1979-07-23 00:17:37.090 ,6,0,,0,0.,4.8,0.,4.8,,0,0.,4.8,2.,4.8
1979-07-23 00:17:41.890 ,6,0,,0,0.,4.8,0.,4.8,,0,0.,4.8,2.,4.8
1979-07-23 00:17:46.690 ,6,0,,0,4.,4.8,2.,4.8,,0,0.,4.8,5.,4.8
1979-07-23 00:17:51.490 ,6,0,,0,9.,4.8,2.,4.8,,0,0.,4.8,6.,4.8
1979-07-23 00:17:56.290 ,6,0,,0,11.,4.8,1.,4.8,,0,0.,4.8,3.,4.8
1979-07-23 00:18:01.090 ,6,0,,0,15.,4.8,3.,4.8,,0,0.,4.8,6.,4.8
1979-07-23 00:18:05.890 ,6,0,,0,22.,4.8,4.,4.8,,0,0.,4.8,8.,4.8
1979-07-23 00:18:10.690 ,6,0,,0,13.,4.8,1.,4.8,,0,0.,4.8,3.,4.8
1979-07-23 00:18:15.490 ,6,0,,0,0.,4.8,0.,4.8,,0,0.,4.8,3.,4.8
1979-07-23 00:18:20.290 ,6,0,,0,0.,4.8,0.,4.8,,0,0.,4.8,1.,4.8
1979-07-23 00:18:25.090 ,7,0,,0,0.,4.8,0.,4.8,,0,0.,4.8,6.,4.8
1979-07-23 00:18:29.890 ,7,0,,0,0.,4.8,0.,4.8,,0,0.,4.8,2.,4.8
1979-07-23 00:18:34.690 ,7,0,,0,1.,4.8,0.,4.8,,0,0.,4.8,0.,4.8
1979-07-23 00:18:39.490 ,7,0,,0,16.,4.8,0.,4.8,,0,0.,4.8,0.,4.8
1979-07-23 00:18:44.290 ,7,0,,0,6.,4.8,0.,4.8,,0,0.,4.8,0.,4.8
1979-07-23 00:18:49.090 ,7,0,,0,11.,4.8,0.,4.8,,0,0.,4.8,0.,4.8
1979-07-23 00:18:53.890 ,7,0,,0,15.,4.8,0.,4.8,,0,0.,4.8,0.,4.8
1979-07-23 00:18:58.690 ,7,0,,0,8.,4.8,0.,4.8,,0,0.,4.8,0.,4.8
1979-07-23 00:19:03.490 ,7,0,,0,1.,4.8,0.,4.8,,0,0.,4.8,0.,4.8
1979-07-23 00:19:08.290 ,7,0,,0,0.,4.8,0.,4.8,,0,0.,4.8,0.,4.8
1979-07-23 00:19:13.090 ,3,1,,0,0.,4.8,0.,4.8,,0,0.,4.8,1.,4.8
1979-07-23 00:19:17.890 ,3,1,,0,0.,4.8,0.,4.8,,0,0.,4.8,2.,4.8
1979-07-23 00:19:22.690 ,3,1,,0,0.,4.8,0.,4.8,,0,0.,4.8,2.,4.8
1979-07-23 00:19:27.490 ,3,1,,0,6.,4.8,0.,4.8,,0,0.,4.8,2.,4.8
1979-07-23 00:19:32.290 ,3,1,,0,6.,4.8,0.,4.8,,0,0.,4.8,1.,4.8
1979-07-23 00:19:37.090 ,0,1,,0,6.,4.8,0.,4.8,,0,0.,4.8,6.,4.8
1979-07-23 00:19:41.890 ,0,1,,0,15.,4.8,1.,4.8,,0,1.,4.8,6.,4.8
1979-07-23 00:19:46.690 ,0,1,,0,18.,4.8,4.,4.8,,0,0.,4.8,8.,4.8
1979-07-23 00:19:51.490 ,0,1,,0,0.,4.8,0.,4.8,,0,0.,4.8,1.,4.8
1979-07-23 00:19:56.290 ,0,1,,0,0.,4.8,0.,4.8,,0,0.,4.8,0.,4.8
1979-07-23 00:20:01.090 ,4,1,,0,0.,4.8,0.,4.8,,0,0.,4.8,7.,4.8
1979-07-23 00:20:05.890 ,4,1,,0,0.,4.8,0.,4.8,,0,0.,4.8,11.,4.8
1979-07-23 00:20:10.690 ,4,1,,0,0.,4.8,0.,4.8,,0,0.,4.8,2.,4.8
1979-07-23 00:20:15.490 ,4,1,,0,3.,4.8,0.,4.8,,0,0.,4.8,0.,4.8
1979-07-23 00:20:20.290 ,4,1,,0,5.,4.8,0.,4.8,,0,0.,4.8,1.,4.8
1979-07-23 00:20:25.090 ,7,1,,0,0.,4.8,0.,4.8,,0,0.,4.8,2.,4.8
1979-07-23 00:20:29.890 ,7,1,,0,7.,4.8,0.,4.8,,0,0.,4.8,2.,4.8
1979-07-23 00:20:34.690 ,7,1,,0,17.,4.8,5.,4.8,,0,0.,4.8,4.,4.8
1979-07-23 00:20:39.490 ,7,1,,0,0.,4.8,0.,4.8,,0,0.,4.8,0.,4.8
1979-07-23 00:20:44.290 ,7,1,,0,0.,4.8,0.,4.8,,0,0.,4.8,0.,4.8
1979-07-23 00:20:49.090 ,3,1,,0,0.,4.8,0.,4.8,,0,0.,4.8,1.,4.8
1979-07-23 00:20:53.890 ,3,1,,0,0.,4.8,0.,4.8,,0,0.,4.8,2.,4.8
1979-07-23 00:20:58.690 ,3,1,,0,0.,4.8,0.,4.8,,0,0.,4.8,0.,4.8
1979-07-23 00:21:03.490 ,3,1,,0,5.,4.8,0.,4.8,,0,0.,4.8,1.,4.8
1979-07-23 00:21:08.290 ,3,1,,0,2.,4.8,0.,4.8,,0,0.,4.8,0.,4.8
1979-07-23 00:21:13.090 ,0,1,,0,7.,4.8,1.,4.8,,0,0.,4.8,1.,4.8
1979-07-23 00:21:17.890 ,0,1,,0,12.,4.8,1.,4.8,,0,0.,4.8,3.,4.8
1979-07-23 00:21:22.690 ,0,1,,0,10.,4.8,0.,4.8,,0,0.,4.8,11.,4.8
1979-07-23 00:21:27.490 ,0,1,,0,0.,4.8,0.,4.8,,0,0.,4.8,0.,4.8
1979-07-23 00:21:32.290 ,0,1,,0,0.,4.8,0.,4.8,,0,0.,4.8,1.,4.8
1979-07-23 00:21:37.090 ,4,1,,0,0.,4.8,0.,4.8,,0,1.,4.8,7.,4.8
1979-07-23 00:21:41.890 ,4,1,,0,0.,4.8,0.,4.8,,0,0.,4.8,9.,4.8
1979-07-23 00:21:46.690 ,4,1,,0,3.,4.8,0.,4.8,,0,0.,4.8,1.,4.8
1979-07-23 00:21:51.490 ,4,1,,0,3.,4.8,0.,4.8,,0,0.,4.8,1.,4.8
1979-07-23 00:21:56.290 ,4,1,,0,3.,4.8,0.,4.8,,0,0.,4.8,2.,4.8
1979-07-23 00:22:01.090 ,7,1,,0,9.,4.8,0.,4.8,,0,0.,4.8,0.,4.8
1979-07-23 00:22:05.890 ,7,1,,0,7.,4.8,1.,4.8,,0,0.,4.8,1.,4.8
1979-07-23 00:22:10.690 ,7,1,,0,11.,4.8,3.,4.8,,0,0.,4.8,4.,4.8
1979-07-23 00:22:15.490 ,7,1,,0,0.,4.8,0.,4.8,,0,0.,4.8,0.,4.8
1979-07-23 00:22:20.290 ,7,1,,0,0.,4.8,0.,4.8,,0,0.,4.8,0.,4.8
1979-07-23 00:22:25.090 ,3,1,,0,0.,4.8,0.,4.8,,0,0.,4.8,2.,4.8
1979-07-23 00:22:29.890 ,3,1,,0,0.,4.8,0.,4.8,,0,0.,4.8,4.,4.8
1979-07-23 00:22:34.690 ,3,1,,0,1.,4.8,0.,4.8,,0,0.,4.8,1.,4.8
1979-07-23 00:22:39.490 ,3,1,,0,5.,4.8,1.,4.8,,0,0.,4.8,1.,4.8
1979-07-23 00:22:44.290 ,3,1,,0,9.,4.8,0.,4.8,,0,0.,4.8,2.,4.8
1979-07-23 00:22:49.090 ,0,1,,0,8.,4.8,1.,4.8,,0,0.,4.8,1.,4.8
1979-07-23 00:22:53.890 ,0,1,,0,13.,4.8,1.,4.8,,0,1.,4.8,3.,4.8
1979-07-23 00:22:58.690 ,0,1,,0,15.,4.8,3.,4.8,,0,0.,4.8,5.,4.8
1979-07-23 00:23:03.490 ,0,1,,0,0.,4.8,0.,4.8,,0,0.,4.8,1.,4.8
1979-07-23 00:23:08.290 ,0,1,,0,0.,4.8,0.,4.8,,0,0.,4.8,0.,4.8
1979-07-23 00:23:13.090 ,4,1,,0,0.,4.8,0.,4.8,,0,0.,4.8,7.,4.8
1979-07-23 00:23:17.890 ,4,1,,0,0.,4.8,0.,4.8,,0,0.,4.8,5.,4.8
1979-07-23 00:23:22.690 ,4,1,,0,0.,4.8,0.,4.8,,0,0.,4.8,3.,4.8
1979-07-23 00:23:27.490 ,4,1,,0,5.,4.8,0.,4.8,,0,0.,4.8,3.,4.8
1979-07-23 00:23:32.290 ,4,1,,0,5.,4.8,0.,4.8,,0,0.,4.8,0.,4.8
1979-07-23 00:23:37.090 ,7,1,,0,3.,4.8,0.,4.8,,0,0.,4.8,0.,4.8
1979-07-23 00:23:41.890 ,7,1,,0,9.,4.8,4.,4.8,,0,0.,4.8,3.,4.8
1979-07-23 00:23:46.690 ,7,1,,0,11.,4.8,2.,4.8,,0,0.,4.8,3.,4.8
1979-07-23 00:23:51.490 ,7,1,,0,0.,4.8,0.,4.8,,0,0.,4.8,0.,4.8
1979-07-23 00:23:56.290 ,7,1,,0,0.,4.8,0.,4.8,,0,0.,4.8,0.,4.8
1979-07-23 00:24:01.090 ,3,1,,0,0.,4.8,0.,4.8,,0,0.,4.8,1.,4.8
1979-07-23 00:24:05.890 ,3,1,,0,0.,4.8,0.,4.8,,0,0.,4.8,4.,4.8
1979-07-23 00:24:10.690 ,3,1,,0,0.,4.8,0.,4.8,,0,0.,4.8,0.,4.8
1979-07-23 00:24:15.490 ,3,1,,0,6.,4.8,2.,4.8,,0,0.,4.8,0.,4.8
1979-07-23 00:24:20.290 ,3,1,,0,9.,4.8,0.,4.8,,0,0.,4.8,1.,4.8
1979-07-23 00:24:25.090 ,0,1,,0,6.,4.8,0.,4.8,,0,0.,4.8,3.,4.8
1979-07-23 00:24:29.890 ,0,1,,0,13.,4.8,0.,4.8,,0,0.,4.8,4.,4.8
1979-07-23 00:24:34.690 ,0,1,,0,18.,4.8,2.,4.8,,0,0.,4.8,7.,4.8
1979-07-23 00:24:39.490 ,0,1,,0,0.,4.8,0.,4.8,,0,0.,4.8,0.,4.8
1979-07-23 00:24:44.290 ,0,1,,0,0.,4.8,0.,4.8,,0,0.,4.8,1.,4.8
1979-07-23 00:24:49.090 ,4,1,,0,0.,4.8,0.,4.8,,0,0.,4.8,3.,4.8
1979-07-23 00:24:53.890 ,4,1,,0,0.,4.8,0.,4.8,,0,0.,4.8,3.,4.8
1979-07-23 00:24:58.690 ,4,1,,0,1.,4.8,0.,4.8,,0,0.,4.8,1.,4.8
1979-07-23 00:25:03.490 ,4,1,,0,7.,4.8,0.,4.8,,0,0.,4.8,3.,4.8
1979-07-23 00:25:08.290 ,4,1,,0,6.,4.8,1.,4.8,,0,0.,4.8,0.,4.8
1979-07-23 00:25:13.090 ,7,1,,0,7.,4.8,0.,4.8,,0,0.,4.8,0.,4.8
1979-07-23 00:25:17.890 ,7,1,,0,8.,4.8,1.,4.8,,0,0.,4.8,2.,4.8
1979-07-23 00:25:22.690 ,7,1,,0,15.,4.8,4.,4.8,,0,0.,4.8,2.,4.8
1979-07-23 00:25:27.490 ,7,1,,0,0.,4.8,0.,4.8,,0,0.,4.8,0.,4.8
1979-07-23 00:25:32.290 ,7,1,,0,0.,4.8,0.,4.8,,0,0.,4.8,0.,4.8
1979-07-23 00:25:37.090 ,3,1,,0,0.,4.8,0.,4.8,,0,0.,4.8,3.,4.8
1979-07-23 00:25:41.890 ,3,1,,0,0.,4.8,0.,4.8,,0,0.,4.8,5.,4.8
1979-07-23 00:25:46.690 ,3,1,,0,2.,4.8,0.,4.8,,0,0.,4.8,5.,4.8
1979-07-23 00:25:51.490 ,3,1,,0,7.,4.8,0.,4.8,,0,0.,4.8,0.,4.8
1979-07-23 00:25:56.290 ,3,1,,0,5.,4.8,0.,4.8,,0,0.,4.8,0.,4.8
1979-07-23 00:26:01.090 ,0,1,,0,4.,4.8,0.,4.8,,0,0.,4.8,2.,4.8
1979-07-23 00:26:05.890 ,0,1,,0,14.,4.8,1.,4.8,,0,0.,4.8,4.,4.8
1979-07-23 00:26:10.690 ,0,1,,0,13.,4.8,3.,4.8,,0,0.,4.8,2.,4.8
1979-07-23 00:26:15.490 ,0,1,,0,0.,4.8,0.,4.8,,0,0.,4.8,0.,4.8
1979-07-23 00:26:20.290 ,0,1,,0,0.,4.8,0.,4.8,,0,0.,4.8,0.,4.8
1979-07-23 00:26:25.090 ,4,1,,0,0.,4.8,0.,4.8,,0,0.,4.8,2.,4.8
1979-07-23 00:26:29.890 ,4,1,,0,0.,4.8,0.,4.8,,0,0.,4.8,1.,4.8
1979-07-23 00:26:34.690 ,4,1,,0,0.,4.8,0.,4.8,,0,0.,4.8,5.,4.8
1979-07-23 00:26:39.490 ,4,1,,0,4.,4.8,0.,4.8,,0,0.,4.8,2.,4.8
1979-07-23 00:26:44.290 ,4,1,,0,3.,4.8,0.,4.8,,0,0.,4.8,2.,4.8
1979-07-23 00:26:49.090 ,7,1,,0,4.,4.8,0.,4.8,,0,0.,4.8,0.,4.8
1979-07-23 00:26:53.890 ,7,1,,0,7.,4.8,3.,4.8,,0,0.,4.8,2.,4.8
1979-07-23 00:26:58.690 ,7,1,,0,17.,4.8,6.,4.8,,0,0.,4.8,5.,4.8
1979-07-23 00:27:03.490 ,7,1,,0,0.,4.8,0.,4.8,,0,0.,4.8,0.,4.8
1979-07-23 00:27:08.290 ,7,1,,0,0.,4.8,0.,4.8,,0,0.,4.8,0.,4.8
1979-07-23 00:27:13.090 ,3,1,,0,0.,4.8,0.,4.8,,0,0.,4.8,3.,4.8
1979-07-23 00:27:17.890 ,3,1,,0,0.,4.8,0.,4.8,,0,0.,4.8,3.,4.8
1979-07-23 00:27:22.690 ,3,1,,0,1.,4.8,0.,4.8,,0,0.,4.8,1.,4.8
1979-07-23 00:27:27.490 ,3,1,,0,1.,4.8,0.,4.8,,0,0.,4.8,0.,4.8
1979-07-23 00:27:32.290 ,3,1,,0,5.,4.8,0.,4.8,,0,0.,4.8,2.,4.8
1979-07-23 00:27:37.090 ,0,1,,0,5.,4.8,1.,4.8,,0,0.,4.8,0.,4.8
1979-07-23 00:27:41.890 ,0,1,,0,14.,4.8,1.,4.8,,0,0.,4.8,1.,4.8
1979-07-23 00:27:46.690 ,0,1,,0,17.,4.8,1.,4.8,,0,0.,4.8,2.,4.8
1979-07-23 00:27:51.490 ,0,1,,0,0.,4.8,0.,4.8,,0,0.,4.8,0.,4.8
1979-07-23 00:27:56.290 ,0,1,,0,0.,4.8,0.,4.8,,0,0.,4.8,0.,4.8
1979-07-23 00:28:01.090 ,4,1,,0,0.,4.8,0.,4.8,,0,1.,4.8,0.,4.8
1979-07-23 00:28:05.890 ,4,1,,0,0.,4.8,0.,4.8,,0,0.,4.8,2.,4.8
1979-07-23 00:28:10.690 ,4,1,,0,2.,4.8,0.,4.8,,0,0.,4.8,1.,4.8
1979-07-23 00:28:15.490 ,4,1,,0,5.,4.8,0.,4.8,,0,0.,4.8,1.,4.8
1979-07-23 00:28:20.290 ,4,1,,0,6.,4.8,1.,4.8,,0,0.,4.8,0.,4.8
1979-07-23 00:28:25.090 ,7,1,,0,4.,4.8,0.,4.8,,0,0.,4.8,1.,4.8
1979-07-23 00:28:29.890 ,7,1,,0,8.,4.8,0.,4.8,,0,0.,4.8,2.,4.8
1979-07-23 00:28:34.690 ,7,1,,0,10.,4.8,2.,4.8,,0,1.,4.8,6.,4.8
1979-07-23 00:28:39.490 ,7,1,,0,0.,4.8,0.,4.8,,0,0.,4.8,0.,4.8
1979-07-23 00:28:44.290 ,7,1,,0,0.,4.8,0.,4.8,,0,0.,4.8,0.,4.8
1979-07-23 00:28:49.090 ,3,1,,0,0.,4.8,0.,4.8,,0,0.,4.8,3.,4.8
1979-07-23 00:28:53.890 ,3,1,,0,0.,4.8,0.,4.8,,0,0.,4.8,2.,4.8
1979-07-23 00:28:58.690 ,3,1,,0,3.,4.8,0.,4.8,,0,0.,4.8,0.,4.8
1979-07-23 00:29:03.490 ,3,1,,0,8.,4.8,0.,4.8,,0,0.,4.8,2.,4.8
1979-07-23 00:29:08.290 ,3,1,,0,5.,4.8,1.,4.8,,0,0.,4.8,2.,4.8
1979-07-23 00:29:13.090 ,0,1,,0,3.,4.8,1.,4.8,,0,0.,4.8,4.,4.8
1979-07-23 00:29:17.890 ,0,1,,0,7.,4.8,1.,4.8,,0,0.,4.8,1.,4.8
1979-07-23 00:29:22.690 ,0,1,,0,8.,4.8,3.,4.8,,0,0.,4.8,1.,4.8
1979-07-23 00:29:27.490 ,0,1,,0,1.,4.8,0.,4.8,,0,0.,4.8,0.,4.8
1979-07-23 00:29:32.290 ,0,1,,0,0.,4.8,0.,4.8,,0,0.,4.8,0.,4.8
1979-07-23 00:29:37.090 ,0,0,,0,0.,4.8,0.,4.8,,0,0.,4.8,0.,4.8
1979-07-23 00:29:41.890 ,0,0,,0,0.,4.8,0.,4.8,,0,0.,4.8,3.,4.8
1979-07-23 00:29:46.690 ,0,0,,0,0.,4.8,0.,4.8,,0,0.,4.8,1.,4.8
1979-07-23 00:29:51.490 ,0,0,,0,8.,4.8,0.,4.8,,0,0.,4.8,2.,4.8
1979-07-23 00:29:56.290 ,0,0,,0,8.,4.8,1.,4.8,,0,0.,4.8,1.,4.8
1979-07-23 00:30:01.090 ,0,0,,0,7.,4.8,0.,4.8,,0,0.,4.8,1.,4.8
1979-07-23 00:30:05.890 ,0,0,,0,3.,4.8,1.,4.8,,0,0.,4.8,1.,4.8